Weather Roundup
Issued by NWS Chicago, IL

Home | Current Version | Previous Version | Text Only | Print | Product List | Glossary Off
Versions: 1 2 3 4 5 6 7 8 9 10 11 12 13 14 15 16 17 18 19 20 21 22 23 24 25 26 27 28 29 30 31 32 33 34 35 36 37 38 39 40 41 42 43 44 45 46 47 48 49 50

000
NZUS59 KLOT 261221
HRRLOT

CHICAGO AREA WEATHER ROUNDUP
NATIONAL WEATHER SERVICE CHICAGO/ROMEOVILLE IL
700 AM CDT TUE MAY 26 2015

NOTE: "FAIR" INDICATES FEW OR NO CLOUDS BELOW 12,000 FEET WITH NO
SIGNIFICANT WEATHER AND/OR OBSTRUCTIONS TO VISIBILITY.

* THESE STATIONS ARE NOT UNDER NWS QUALITY CONTROL. THEY ALSO MAY NOT
  REPORT WEATHER SUCH AS PRECIPITATION OR FOG.

ILZ005-006-012>014-019>023-261300-
NORTHEAST ILLINOIS

CITY           SKY/WX    TMP DP  RH WIND       PRES   REMARKS
OHARE          CLOUDY    67  64  90 S13       29.94R
6HR MIN TEMP:  64; 6HR MAX TEMP:  71;

MIDWAY         CLOUDY    70  65  84 S12G18    29.95R
6HR MIN TEMP:  69; 6HR MAX TEMP:  73;

AURORA         CLOUDY    68  64  87 S13       29.94R FOG
6HR MIN TEMP:  63; 6HR MAX TEMP:  68;

LANSING*       CLOUDY    67  63  84 S13       29.97S
JOLIET*        CLOUDY    69  66  89 S6        29.95R
WAUKEGAN       CLOUDY    68  65  90 S9        29.93S
6HR MIN TEMP:  64; 6HR MAX TEMP:  68;

DUPAGE AIRPORT CLOUDY    68  64  87 S13       29.94R
6HR MIN TEMP:  65; 6HR MAX TEMP:  68;

WHEELING       CLOUDY    69  64  84 S13       29.95R
6HR MIN TEMP:  67; 6HR MAX TEMP:  71;

KANKAKEE*      CLOUDY    69  66  89 SE13G18   29.96S
MORRIS*        CLOUDY    68  65  89 S9        29.93R
LEWIS AIRPORT* CLOUDY    67  64  89 S14       29.95S
NORTHERLY IS     N/A     68  63  84 S6          N/A
$$

WIZ051-052-058>065-066-070>072-261300-
SOUTHEAST WISCONSIN

CITY           SKY/WX    TMP DP  RH WIND       PRES   REMARKS
MILWAUKEE      PTSUNNY   68  64  87 S12       29.91S
6HR MIN TEMP:  65; 6HR MAX TEMP:  68;

KENOSHA*       CLOUDY    69  65  86 S12       29.92F
RACINE*        CLOUDY    65  61  87 S6        29.94S
BURLINGTON     CLOUDY    66  64  93 S6        29.92S
WAUKESHA       CLOUDY    64  63  94 S12G23    29.91F FOG
WEST BEND      MOSUNNY   68  63  83 S5        29.90S
$$

INZ001>003-010>013-019-020-261300-
NORTHWEST INDIANA

CITY           SKY/WX    TMP DP  RH WIND       PRES   REMARKS
GARY*          CLOUDY    70  66  88 S10       29.97S
MICHIGAN CITY* NOT AVBL
RENSSELAER*    NOT AVBL
VALPARAISO     CLOUDY    67  64  90 S9        30.00R
$$

LMZ740>746-261300-
SOUTHERN LAKE MICHIGAN

STATION/POSITION TIME  SKY/WX   TEMP WIND        PRES    VSBY
                                AIR  DIR/SP/G
                 (UTC)          (F)  (DEG/KT/KT) (MB)    (MI)
HARRISON CRIB    1200            65  180/ 19/ 21   N/A
BURNHAM HARBOR   1200            68  170/  7/ 15   N/A
CALUMET HARBOR   1100            68  180/ 11/ 14   N/A
BURNS HARBOR     1100            67  180/ 11/ 14 1015.6R
MICHIGAN CITY    1200            67  160/ 15/ 20   N/A
$$

ABBREVIATIONS USED IN REMARKS
   TC - TEMPERATURE IN CELSIUS
  WCI - WIND CHILL INDEX
   HX - HEAT INDEX
  VSB - VISIBILITY
$$


USA.gov is the U.S. government's official web portal to all federal, state and local government web resources and services.